Weather History for Gwinn, MI

Change the Weather History Date:

Friday, April 12, 2013

  Actual Average (KESC) Record (KESC)
Temperature  
Mean Temperature 26 °F -  
Max Temperature 28 °F 44 °F 66 °F (2006)
Min Temperature 22 °F 29 °F 16 °F (1950)
Degree Days  
Heating Degree Days 39    
Moisture  
Dew Point 25 °F    
Average Humidity 90    
Maximum Humidity 96    
Minimum Humidity 80    
Precipitation  
Precipitation 0.06 in - - ()
Sea Level Pressure  
Sea Level Pressure 29.71 in    
Wind  
Wind Speed 10 mph (NE)    
Max Wind Speed 18 mph    
Max Gust Speed 25 mph    
Visibility 2 miles    
Events Snow    
Averages and records for this station are not official NWS values.
T = Trace of Precipitation, MM = Missing Value Source: NWS Daily Summary

Daily Weather History Graph

Daily Weather History Graph

Search for Another Location

Airport:

Trip Planner

Search our weather history database for the weather conditions in past years. The results will help you decide how hot, cold, wet, or windy it might be!

Date:

Astronomy

Apr. 12, 2013 Rise Set
Actual Time 7:07 AM EDT 8:33 PM EDT
Civil Twilight 6:36 AM EDT 9:04 PM EDT
Nautical Twilight 5:58 AM EDT 9:42 PM EDT
Astronomical Twilight 5:18 AM EDT 10:23 PM EDT
Moon 8:10 AM EDT (4/12) 11:12 PM EDT (4/12)
Length of Visible Light 14h 28m
Length of Day
13h 25m
Waxing Crescent, 5% of the Moon is Illuminated
Apr 12
Waxing Crescent
Apr 18
First Quarter
Apr 25
Full
May 2
Last Quarter
May 9
New

Hourly Weather History & Observations

Time (EDT) Temp. Windchill Dew Point Humidity Pressure Visibility Wind Dir Wind Speed Gust Speed Precip Events Conditions
12:17 AM 27.5 °F 16.3 °F 25.3 °F 92% 29.80 in 1.0 mi ENE 13.8 mph 19.6 mph N/A Snow Snow
12:36 AM 27.5 °F 16.3 °F 25.3 °F 92% 29.79 in 1.0 mi ENE 13.8 mph 19.6 mph N/A Snow Snow
12:57 AM 27.5 °F 18.0 °F 25.5 °F 92% 29.80 in 0.8 mi ENE 10.4 mph - N/A Snow Snow
1:17 AM 27.5 °F 16.3 °F 25.5 °F 92% 29.79 in 0.8 mi ENE 13.8 mph 18.4 mph N/A Snow Snow
1:37 AM 27.5 °F 21.1 °F 25.7 °F 93% 29.80 in 0.8 mi ENE 5.8 mph - 0.01 in Snow Snow
1:57 AM 27.3 °F 19.1 °F 25.7 °F 94% 29.80 in 0.8 mi ENE 8.1 mph - 0.02 in Snow Snow
2:16 AM 27.3 °F 17.7 °F 25.7 °F 94% 29.79 in 0.8 mi ENE 10.4 mph - 0.01 in Snow Snow
2:37 AM 27.3 °F 18.4 °F 25.7 °F 94% 29.77 in 0.8 mi ENE 9.2 mph - 0.02 in Snow Snow
2:57 AM 27.3 °F 18.4 °F 25.3 °F 92% 29.77 in 0.5 mi East 9.2 mph - 0.02 in Snow Heavy Snow
3:16 AM 27.1 °F 15.9 °F 24.8 °F 91% 29.75 in 0.8 mi East 13.8 mph 20.7 mph N/A Snow Snow
3:37 AM 27.1 °F 16.9 °F 25.2 °F 92% 29.74 in 0.5 mi ENE 11.5 mph 18.4 mph N/A Snow Snow
3:57 AM 27.1 °F 15.4 °F 25.0 °F 92% 29.73 in 1.2 mi ENE 15.0 mph 18.4 mph 0.01 in Snow Snow
4:16 AM 26.6 °F 16.8 °F 24.6 °F 92% 29.74 in 0.8 mi East 10.4 mph - N/A Snow Snow
4:37 AM 26.6 °F 17.5 °F 24.8 °F 93% 29.74 in 1.0 mi ENE 9.2 mph - 0.01 in Snow Light Snow
4:56 AM 26.4 °F 16.6 °F 24.6 °F 93% 29.74 in 0.8 mi ENE 10.4 mph - 0.01 in Snow Snow
5:17 AM 26.4 °F 18.0 °F 24.6 °F 93% 29.74 in 0.8 mi ENE 8.1 mph - N/A Snow Light Snow
5:37 AM 26.4 °F 16.0 °F 24.6 °F 93% 29.73 in 2.0 mi NE 11.5 mph - N/A Snow Light Snow
5:56 AM 26.4 °F 15.0 °F 24.3 °F 92% 29.73 in 1.5 mi ENE 13.8 mph 21.9 mph N/A Snow Light Snow
6:55 AM 24.8 °F 12.4 °F 23.0 °F 93% 29.70 in 3.0 mi ENE 15.0 mph 20.7 mph N/A Snow Light Snow
7:50 AM 26.6 °F 13.8 °F 23.0 °F 86% 29.69 in 3.0 mi NE 17.3 mph 20.7 mph N/A Snow Light Snow
8:08 AM 26.6 °F 15.2 °F 23.0 °F 86% 29.68 in 1.8 mi NE 13.8 mph 20.7 mph N/A Snow Light Snow
8:50 AM 26.6 °F 13.4 °F 23.0 °F 86% 29.68 in 3.0 mi NE 18.4 mph 25.3 mph N/A Snow Light Snow
10:50 AM 26.6 °F 15.2 °F 23.0 °F 86% 29.66 in 2.0 mi ENE 13.8 mph - N/A   Overcast
11:50 AM 26.6 °F 15.7 °F 23.0 °F 86% 29.66 in 4.0 mi NE 12.7 mph - N/A   Overcast
12:50 PM 26.6 °F 15.7 °F 23.0 °F 86% 29.65 in 5.0 mi NE 12.7 mph - N/A   Overcast
1:50 PM 28.4 °F 21.2 °F 24.8 °F 86% 29.64 in 7.0 mi NE 6.9 mph - N/A   Overcast
2:50 PM 28.4 °F 22.2 °F 24.8 °F 86% 29.64 in 7.0 mi NE 5.8 mph - N/A   Overcast
3:50 PM 28.4 °F 24.6 °F 23.0 °F 80% 29.64 in 7.0 mi NNE 3.5 mph - N/A   Overcast
4:30 PM 28.4 °F 19.7 °F 24.8 °F 86% 29.65 in 2.5 mi NNE 9.2 mph - N/A Snow Light Snow
4:50 PM 28.4 °F 21.2 °F 24.8 °F 86% 29.65 in 2.5 mi North 6.9 mph - N/A Snow Light Snow
5:55 PM 28.4 °F 24.6 °F 24.8 °F 86% 29.66 in 4.0 mi NNE 3.5 mph - N/A Snow Light Snow
6:50 PM 28.4 °F 21.2 °F 24.8 °F 86% 29.67 in 2.5 mi NNE 6.9 mph - N/A Snow Light Snow
7:50 PM 28.4 °F 24.6 °F 24.8 °F 86% 29.67 in 5.0 mi NNE 3.5 mph - N/A   Overcast
9:50 PM 26.6 °F - 24.8 °F 93% 29.68 in 4.0 mi Calm Calm - N/A Snow Light Snow
10:16 PM 27.3 °F - 25.7 °F 94% 29.69 in 3.0 mi Calm Calm - N/A Snow Light Snow
10:37 PM 26.6 °F - 25.3 °F 95% 29.69 in 3.0 mi Calm Calm - N/A Snow Light Snow
10:57 PM 26.4 °F - 25.0 °F 94% 29.69 in 1.8 mi Calm Calm - N/A Snow Light Snow
11:16 PM 25.5 °F - 24.4 °F 96% 29.69 in 1.2 mi Calm Calm - N/A Snow Light Snow
11:37 PM 24.6 °F - 23.5 °F 96% 29.69 in 0.5 mi Calm Calm - N/A Snow Light Snow
11:57 PM 22.8 °F - 21.6 °F 95% 29.68 in 0.5 mi Calm Calm - N/A Snow Light Snow